This demonstration page uses our WeatherBlox Daily Observations layout. Learn more.

Left ArrowRight Arrow

39.51506, -84.39828

Hourly Observations for March 14, 2021

Temp ( °F °C ) Dew Point ( °F °C ) Humidity (%) Winds ( mph kmh ) Pressure ( in mb ) Visibility ( mi km ) Precip ( " mm )
12:15 am 00:15 Clear 31 -0.7 28 -2.5 88 88 N N/A 30.37 1028 10 16 N/A
12:35 am 00:35 Clear 32 -0.2 28 -2.2 87 87 N N/A 30.37 1028 10 16 N/A
12:55 am 00:55 Clear 31 -0.7 28 -2.2 90 90 N N/A 30.37 1028 10 16 N/A
1:15 am 01:15 Clear 30 -1 28 -2.4 90 90 N N/A 30.37 1028 10 16 N/A
1:35 am 01:35 Clear 30 -1 28 -2.2 92 92 N N/A 30.36 1028 10 16 N/A
1:55 am 01:55 Clear 30 -0.9 28 -2 92 92 N N/A 30.36 1028 10 16 N/A
3:15 am 03:15 Clear 30 -1.3 28 -2.5 92 92 N N/A 30.35 1028 10 16 N/A
3:35 am 03:35 Clear 29 -1.7 27 -2.6 94 94 NE 3 6 30.34 1027 10 16 N/A
3:55 am 03:55 Clear 29 -1.6 28 -2.5 94 94 N 3 6 30.33 1027 10 16 N/A
4:15 am 04:15 Clear 29 -1.7 27 -2.7 93 93 N N/A 30.32 1027 10 16 N/A
4:35 am 04:35 Clear 29 -1.7 27 -2.9 92 92 N N/A 30.31 1026 10 16 N/A
4:55 am 04:55 Clear 28 -2.2 26 -3.1 94 94 N N/A 30.32 1027 10 16 N/A
5:15 am 05:15 Clear 29 -1.9 26 -3.1 92 92 N 3 6 30.32 1027 10 16 N/A
5:35 am 05:35 Clear 29 -1.9 27 -2.9 93 93 N 3 6 30.31 1026 10 16 N/A
5:55 am 05:55 Clear 28 -2 27 -2.9 94 94 N 3 6 30.32 1027 10 16 N/A
6:15 am 06:15 Clear 28 -2.4 27 -3 96 96 N 3 6 30.32 1027 10 16 N/A
6:35 am 06:35 Clear 28 -2.4 26 -3.1 95 95 N N/A 30.33 1027 10 16 N/A
6:55 am 06:55 Clear 28 -2.1 27 -3 94 94 N 5 7 30.33 1027 10 16 N/A
7:15 am 07:15 Clear 29 -1.8 27 -2.6 94 94 N 5 7 30.32 1027 10 16 N/A
7:35 am 07:35 Clear 30 -1 28 -2 93 93 N 3 6 30.32 1027 10 16 N/A
7:55 am 07:55 Sunny 31 -0.6 29 -1.8 92 92 N N/A 30.33 1027 10 16 N/A
8:15 am 08:15 Sunny 32 -0.2 30 -1.2 93 93 N N/A 30.33 1027 10 16 N/A
8:35 am 08:35 Sunny 32 0.2 30 -1.1 91 91 N N/A 30.33 1027 10 16 N/A
8:55 am 08:55 Sunny 33 0.7 31 -0.5 92 92 NNE 3 6 30.32 1027 10 16 N/A
9:15 am 09:15 Sunny 34 1.1 30 -0.9 87 87 N N/A 30.33 1027 10 16 N/A
9:35 am 09:35 Sunny 35 1.5 31 -0.3 88 88 N N/A 30.33 1027 10 16 N/A
9:55 am 09:55 Sunny 35 1.9 32 0.2 89 89 S 3 6 30.34 1027 10 16 N/A
10:15 am 10:15 Partly Cloudy 37 2.7 34 0.9 88 88 SSW 5 7 30.34 1027 10 16 N/A
10:35 am 10:35 Partly Cloudy 38 3.1 33 0.6 84 84 N N/A 30.35 1028 10 16 N/A
10:55 am 10:55 Cloudy 39 3.7 33 0.6 80 80 N N/A 30.36 1028 10 16 N/A
11:15 am 11:15 Cloudy 40 4.5 33 0.4 75 75 N N/A 30.34 1028 10 16 N/A
11:35 am 11:35 Partly Cloudy 42 5.3 32 0.1 69 69 S 5 7 30.34 1027 10 16 N/A
11:55 am 11:55 Sunny 44 6.4 31 -0.3 63 63 S 6 9 30.35 1028 10 16 N/A
12:15 pm 12:15 Sunny 47 8.1 32 -0.2 56 56 N N/A 30.33 1027 10 16 N/A
12:35 pm 12:35 Sunny 49 9.5 33 0.4 53 53 NE 3 6 30.33 1027 10 16 N/A
12:55 pm 12:55 Sunny 50 9.9 33 0.6 53 53 NE 3 6 30.32 1027 10 16 N/A
1:15 pm 13:15 Sunny 52 11.1 34 1.2 51 51 N N/A 30.32 1027 10 16 N/A
1:35 pm 13:35 Sunny 52 11.1 34 0.9 50 50 N N/A 30.32 1027 10 16 N/A
1:55 pm 13:55 Sunny 53 11.8 34 1.3 49 49 N N/A 30.31 1027 10 16 N/A
2:15 pm 14:15 Sunny 54 12.3 33 0.6 45 45 N 3 6 30.30 1026 10 16 N/A
2:35 pm 14:35 Sunny 55 12.9 33 0.7 44 44 ENE 7 11 30.29 1026 10 16 N/A
2:55 pm 14:55 Sunny 56 13.4 32 0.2 41 41 NNE 10 17 30.28 1025 10 16 N/A
3:15 pm 15:15 Sunny 56 13.5 33 0.8 42 42 ENE 10 17 30.27 1025 10 16 N/A
3:35 pm 15:35 Sunny 56 13.5 31 -0.4 39 39 NE 10 17 30.27 1025 10 16 N/A
3:55 pm 15:55 Sunny 57 13.9 32 -0.2 38 38 NE 10 17 30.27 1025 10 16 N/A
4:15 pm 16:15 Sunny 56 13.3 30 -1.1 37 37 NNE 6 9 30.28 1025 10 16 N/A
4:35 pm 16:35 Sunny 56 13.2 31 -0.7 39 39 NNE 10 17 30.28 1025 10 16 N/A
4:55 pm 16:55 Sunny 56 13.2 30 -1.1 37 37 NE 8 13 30.28 1025 10 16 N/A
5:15 pm 17:15 Sunny 56 13.1 30 -1 38 38 NE 8 13 30.28 1025 10 16 N/A
5:35 pm 17:35 Sunny 56 13.2 30 -0.9 38 38 N 10 17 30.27 1025 10 16 N/A
5:55 pm 17:55 Sunny 55 13 30 -1.3 37 37 N 9 15 30.27 1025 10 16 N/A
6:15 pm 18:15 Sunny 55 12.6 29 -1.4 38 38 NNE 9 15 30.27 1025 10 16 N/A
6:35 pm 18:35 Sunny 54 12.4 29 -1.9 37 37 NNE 9 15 30.26 1025 10 16 N/A
6:55 pm 18:55 Sunny 54 12 29 -1.4 40 40 NNE 10 17 30.26 1025 10 16 N/A
7:15 pm 19:15 Sunny 53 11.9 28 -2.2 38 38 NNE 9 15 30.27 1025 10 16 N/A
7:35 pm 19:35 Sunny 53 11.6 27 -3 36 36 NNE 10 17 30.29 1026 10 16 N/A
7:55 pm 19:55 Clear 52 11.1 25 -4 35 35 NNE 12 19 30.30 1026 10 16 N/A
8:15 pm 20:15 Clear 51 10.5 26 -3.3 38 38 ENE 9 15 30.32 1027 10 16 N/A
8:35 pm 20:35 Clear 50 10 26 -3.5 39 39 ENE 18 30 30.33 1027 10 16 N/A
8:55 pm 20:55 Clear 49 9.4 22 -5.8 34 34 ENE 16 26 30.34 1027 10 16 N/A
9:15 pm 21:15 Clear 48 8.8 20 -6.4 34 34 ENE 17 28 30.35 1028 10 16 N/A
9:35 pm 21:35 Clear 47 8.2 21 -5.9 37 37 ENE 23 37 30.35 1028 10 16 N/A
9:55 pm 21:55 Clear 46 7.5 22 -5.4 40 40 ENE 22 35 30.37 1028 10 16 N/A
10:15 pm 22:15 Clear 45 7.1 21 -6.2 39 39 ENE 17 28 30.37 1028 10 16 N/A
10:35 pm 22:35 Clear 44 6.5 19 -7 38 38 ENE 16 26 30.38 1029 10 16 N/A
10:55 pm 22:55 Clear 43 6.2 20 -6.7 39 39 ENE 14 22 30.38 1029 10 16 N/A
11:15 pm 23:15 Clear 43 6.1 21 -6.1 42 42 ENE 14 22 30.39 1029 10 16 N/A
11:35 pm 23:35 Clear 42 5.8 22 -5.6 44 44 ENE 15 24 30.39 1029 10 16 N/A
11:55 pm 23:55 Clear 42 5.6 22 -5.7 44 44 ENE 14 22 30.40 1029 10 16 N/A

Powered by AerisWeather